K1CSF Weather Reports


Display with metric or nautical units.
time (UTC)temp
F
wind
direction
speed
MPH
gust
MPH
rain 1hr
in
rain 24hr
in
rain mn
in
humidity
%
barometer
mb
20260510211533 58 271 6.0 18.0 0.00 0.22 0.22 37 1013.5
20260510210034 59 257 10.0 18.0 0.00 0.22 0.22 37 1013.4
20260510204536 59 318 9.0 16.0 0.00 0.22 0.22 38 1013.1
20260510203027 59 350 5.0 18.0 0.00 0.22 0.22 42 1013.0
20260510201525 58 236 5.0 15.0 0.00 0.22 0.22 43 1013.2
20260510200024 59 214 3.0 12.0 0.00 0.22 0.22 47 1013.0
20260510194525 59 229 7.0 18.0 0.00 0.22 0.22 48 1013.0
20260510193018 58 276 8.0 14.0 0.00 0.22 0.22 47 1013.0
20260510191516 58 241 5.0 14.0 0.00 0.22 0.22 51 1013.2
20260510190014 58 279 6.0 16.0 0.00 0.22 0.22 52 1013.3
20260510184511 57 231 7.0 12.0 0.00 0.22 0.22 53 1013.0
20260510183009 57 305 9.0 20.0 0.00 0.22 0.22 51 1013.2
20260510181505 56 244 4.0 11.0 0.00 0.22 0.22 66 1013.2
20260510180003 55 199 3.0 6.0 0.00 0.22 0.22 73 1013.1
20260510174559 54 199 2.0 9.0 0.00 0.22 0.22 75 1013.0
20260510173102 53 173 1.0 6.0 0.00 0.22 0.22 78 1012.9
20260510171556 50 267 1.0 4.0 0.00 0.22 0.22 76 1013.2
20260510170051 49 265 2.0 7.0 0.00 0.22 0.22 79 1013.3
20260510164554 48 287 4.0 10.0 0.00 0.22 0.22 80 1013.2
20260510163048 47 315 7.0 12.0 0.10 0.22 0.22 83 1013.2
20260510161546 46 339 2.0 10.0 0.11 0.22 0.22 89 1013.3
20260510160045 47 312 4.0 14.0 0.18 0.22 0.22 88 1013.1
20260510154548 48 334 8.0 16.0 0.19 0.22 0.22 91 1012.9
20260510153040 49 286 4.0 11.0 0.09 0.12 0.12 91 1012.8
20260510151542 51 311 1.0 4.0 0.08 0.11 0.11 90 1012.1
20260510150046 51 134 0.0 0.0 0.01 0.04 0.04 89 1012.1
20260510144534 51 134 0.0 3.0 0.00 0.03 0.03 88 1011.9
20260510143025 51 134 1.0 4.0 0.00 0.03 0.03 89 1012.0
20260510141523 51 134 0.0 4.0 0.00 0.03 0.03 89 1012.0
20260510140022 51 170 1.0 5.0 0.00 0.03 0.03 90 1012.0
20260510134521 50 174 2.0 5.0 0.00 0.03 0.03 89 1011.9
20260510133019 50 158 0.0 5.0 0.00 0.03 0.03 89 1011.8
20260510131518 50 119 3.0 6.0 0.00 0.03 0.03 89 1011.8
20260510130019 50 125 3.0 6.0 0.01 0.03 0.03 89 1011.7
20260510124526 50 152 2.0 7.0 0.01 0.03 0.03 89 1011.8
20260510123014 50 169 3.0 8.0 0.01 0.03 0.03 89 1011.6
20260510121510 50 186 1.0 5.0 0.01 0.03 0.03 90 1011.5
20260510120015 50 190 2.0 5.0 0.00 0.02 0.02 90 1011.5
20260510114505 49 126 2.0 5.0 0.00 0.02 0.02 91 1011.3
20260510113057 47 132 2.0 4.0 0.00 0.02 0.02 91 1011.5
20260510111604 47 172 0.0 2.0 0.00 0.02 0.02 91 1011.4
20260510110059 46 181 1.0 3.0 0.00 0.02 0.02 91 1010.9
20260510104553 46 181 0.0 4.0 0.00 0.02 0.02 91 1011.0
20260510103059 46 152 3.0 7.0 0.00 0.02 0.02 91 1010.3
20260510101550 46 128 1.0 3.0 0.00 0.02 0.02 91 1010.7
20260510100052 46 132 2.0 4.0 0.00 0.02 0.02 91 1010.5
20260510094602 46 125 2.0 7.0 0.00 0.02 0.02 91 1010.3
20260510093104 46 117 4.0 9.0 0.00 0.02 0.02 91 1010.1
20260510091546 47 100 5.0 9.0 0.00 0.02 0.02 91 1009.9
20260510090048 47 98 4.0 10.0 0.00 0.02 0.02 91 1010.1
20260510084544 47 105 3.0 6.0 0.01 0.02 0.02 91 1010.1
20260510083052 47 180 3.0 5.0 0.02 0.02 0.02 91 1010.5
20260510081541 47 187 3.0 5.0 0.02 0.02 0.02 91 1010.6
20260510080037 47 115 2.0 5.0 0.02 0.02 0.02 91 1010.3
20260510074536 47 169 1.0 3.0 0.01 0.01 0.01 91 1010.5
20260510073038 47 167 2.0 5.0 0.00 0.00 0.00 91 1010.6
20260510071536 47 169 1.0 6.0 0.00 0.00 0.00 91 1010.7
20260510070030 47 186 1.0 4.0 0.00 0.00 0.00 91 1010.7
20260510064531 47 142 2.0 4.0 0.00 0.00 0.00 90 1010.4
20260510063029 46 132 2.0 5.0 0.00 0.00 0.00 90 1010.4
20260510061533 46 159 3.0 5.0 0.00 0.00 0.00 90 1010.6
20260510060038 46 140 2.0 6.0 0.00 0.00 0.00 90 1010.5
20260510054536 46 179 1.0 13.0 0.00 0.00 0.00 90 1010.6
20260510053025 46 182 0.0 7.0 0.00 0.00 0.00 90 1010.7
20260510051525 46 194 4.0 7.0 0.00 0.00 0.00 90 1010.7
20260510050023 46 123 6.0 15.0 0.00 0.00 0.00 90 1010.8
20260510044525 46 172 2.0 8.0 0.00 0.00 0.00 90 1010.8
20260510043024 46 106 6.0 14.0 0.00 0.00 0.00 90 1010.6
20260510041520 46 150 6.0 12.0 0.00 0.00 0.00 90 1010.6
20260510040016 46 161 3.0 8.0 0.00 0.00 0.00 90 1010.8
20260510034520 46 198 4.0 10.0 0.00 0.00 0.00 90 1011.2
20260510033013 46 161 4.0 11.0 0.00 0.00 0.00 90 1010.9
20260510031511 46 173 4.0 8.0 0.00 0.00 0.00 89 1010.9
20260510030017 46 142 4.0 12.0 0.00 0.00 0.00 89 1011.0
20260510024509 46 171 3.0 8.0 0.00 0.00 0.00 89 1011.2
20260510023007 46 190 3.0 9.0 0.00 0.00 0.00 89 1011.3
20260510021507 46 140 2.0 8.0 0.00 0.00 0.00 88 1011.2
20260510020006 46 161 3.0 12.0 0.00 0.00 0.00 88 1011.2
20260510014507 46 131 3.0 12.0 0.00 0.00 0.00 88 1011.5
20260510013007 46 159 4.0 14.0 0.00 0.00 0.00 88 1011.5
20260510011507 46 152 6.0 10.0 0.00 0.00 0.00 88 1011.4
20260510010005 46 122 5.0 10.0 0.00 0.00 0.00 87 1011.6
20260510004502 46 148 4.0 10.0 0.00 0.00 0.00 87 1011.6
20260510003002 46 180 3.0 11.0 0.00 0.00 0.00 87 1011.6
20260510001501 46 267 2.0 6.0 0.00 0.00 0.00 87 1011.5
20260510000004 46 140 4.0 12.0 0.00 0.00 0.00 86 1011.3
20260509234502 46 146 3.0 9.0 0.00 0.00 0.00 86 1011.5
20260509233059 46 186 4.0 12.0 0.00 0.00 0.00 86 1011.3
20260509231605 46 117 3.0 7.0 0.00 0.00 0.00 85 1011.4
20260509230100 46 133 1.0 8.0 0.00 0.00 0.00 85 1011.5
20260509224601 46 178 1.0 7.0 0.00 0.00 0.00 85 1011.7
20260509223057 46 138 4.0 13.0 0.00 0.00 0.00 85 1011.6
20260509221556 46 101 3.0 10.0 0.00 0.00 0.00 85 1011.6
20260509220100 45 134 2.0 8.0 0.00 0.00 0.00 86 1011.8
20260509214559 46 130 4.0 10.0 0.00 0.00 0.00 86 1012.0
20260509213118 46 116 6.0 9.0 0.00 0.00 0.00 85 1011.9